Zurück zum Katalog

SL-16 DEB

AktivLEO
NORAD 39304·DEBRIS·🇷🇺 Russia

Gestartet Dec 25, 1992 von Baikonur Cosmodrome

Loading…

Nächste Überflüge (nächste 24 Stunden)

TLE

AlterndSource: Space-Track

Epoche: Sep 11, 2026, 10:33 UTC

1 39304U 92093JV  26254.44000205  .00000210  00000-0  15755-3 0  9995
2 39304  71.2048 176.3608 0089469 220.4354 139.0093 14.03371172673112

Verfolge SL-16 DEB in Echtzeit mit AllMySat

Download on the App Store